MDT,Max TemperatureF,Mean TemperatureF,Min TemperatureF,Max Dew PointF,MeanDew PointF,Min DewpointF,Max Humidity, Mean Humidity, Min Humidity, Max Sea Level PressureIn, Mean Sea Level PressureIn, Min Sea Level PressureIn, Max VisibilityMiles, Mean VisibilityMiles, Min VisibilityMiles, Max Wind SpeedMPH, Mean Wind SpeedMPH, Max Gust SpeedMPH,PrecipitationIn, CloudCover, Events, WindDirDegrees
2013-6-1,64,54,44,43,38,36,87,56,37,30.29,30.20,30.10,10,10,10,14,7,18,0.00,2,,99
2013-6-2,75,62,48,46,40,36,71,46,24,30.10,29.88,29.67,10,10,10,22,6,29,0.00,2,,162
2013-6-3,64,53,42,48,35,28,93,51,27,30.06,29.86,29.72,10,10,10,25,12,45,0.01,2,,286
2013-6-4,48,44,39,37,37,36,87,77,66,30.27,30.18,30.07,10,10,10,13,8,17,0.00,8,,20
2013-6-5,68,52,35,39,36,34,93,56,30,30.26,30.16,30.06,10,10,10,10,2,,0.00,1,,90
2013-6-6,73,58,44,48,42,36,76,51,33,30.12,30.10,30.07,10,10,10,15,5,18,0.00,1,,348
2013-6-7,78,64,51,52,45,39,71,47,26,30.08,29.92,29.78,10,10,9,16,5,23,0.00,3,,269
2013-6-8,71,61,51,48,40,34,67,44,28,30.00,29.95,29.84,10,10,10,13,6,20,0.00,1,Thunderstorm,11
2013-6-9,86,67,48,45,38,34,62,36,17,30.03,29.91,29.79,10,10,10,17,5,31,0.00,0,,177
2013-6-10,77,65,53,50,44,37,59,45,29,29.93,29.88,29.79,10,10,10,23,9,34,0.00,0,,7
2013-6-11,73,63,53,55,49,45,82,59,38,30.09,29.89,29.81,10,10,9,24,7,33,0.11,1,Thunderstorm,348
2013-6-12,75,60,46,55,49,43,94,71,31,30.14,30.08,30.02,10,10,10,16,5,26,0.00,2,Thunderstorm,199
2013-6-13,84,68,53,54,46,36,88,53,19,30.03,29.92,29.79,10,10,6,28,6,39,0.03,1,Thunderstorm,169
2013-6-14,66,54,42,43,31,23,87,42,21,30.12,30.02,29.94,10,10,10,18,10,32,0.00,1,,275
2013-6-15,75,60,44,34,27,21,46,29,14,30.14,30.07,29.98,10,10,10,17,8,20,0.00,0,,150
2013-6-16,73,60,46,45,38,28,57,42,31,30.17,30.11,30.07,10,10,10,21,6,24,0.00,0,,351
2013-6-17,78,63,48,52,45,39,82,50,24,30.19,30.12,30.04,10,10,10,13,4,16,0.00,0,,74
2013-6-18,86,70,53,48,40,30,67,37,13,30.07,29.95,29.83,10,10,7,30,8,41,0.00,0,,182
2013-6-19,89,70,51,48,36,25,63,35,10,29.83,29.68,29.54,10,10,10,29,8,47,0.00,0,,212
2013-6-20,71,60,50,32,25,18,38,27,14,30.02,29.92,29.84,10,10,10,20,10,25,0.00,0,,291
2013-6-21,66,58,50,45,37,30,59,46,37,30.05,30.01,29.98,10,10,10,17,8,25,0.00,2,,334
2013-6-22,62,53,44,48,44,39,93,71,52,30.07,30.01,29.93,10,10,10,23,9,28,0.01,3,Thunderstorm,13
2013-6-23,78,58,37,43,38,30,87,50,17,30.06,29.90,29.77,10,10,10,20,5,25,0.00,1,,129
2013-6-24,82,66,51,46,40,34,63,39,20,29.82,29.74,29.67,10,10,10,20,5,33,0.00,1,Thunderstorm,244
2013-6-25,77,70,62,45,41,36,48,36,24,30.00,29.89,29.74,10,10,10,23,13,34,0.00,2,,256
2013-6-26,82,72,62,48,44,39,55,38,24,30.18,30.05,29.97,10,10,10,15,8,21,0.00,3,,222
2013-6-27,89,71,53,54,48,39,77,41,17,30.31,30.23,30.18,10,10,10,23,7,32,0.00,0,,349
2013-6-28,82,70,57,57,50,45,63,47,35,30.35,30.31,30.25,10,10,10,14,5,18,0.00,0,,23
2013-6-29,84,70,57,57,52,46,88,52,37,30.31,30.25,30.15,10,10,10,21,5,30,0.00,1,Thunderstorm,14
2013-6-30,84,70,57,59,54,52,88,56,35,30.26,30.20,30.17,10,10,8,16,7,23,0.00,1,,349